Вернуться в каталог

WILDFIRE 4

АктивенНаукаPO
NORAD 57756·PAYLOAD·🇺🇸 United States

Запущен Sep 2, 2023 с Vandenberg Space Force Base

Loading…

Ближайшие Пролёты (ближайшие 24 часа)

TLE

СвежийSource: Space-Track

Эпоха: Sep 14, 2026, 11:41 UTC

1 57756U 23133A   26257.48730930  .00000073  00000-0  53016-4 0  9997
2 57756  80.9987 280.3208 0011006 112.4056 247.8269 13.86373113153499

Отслеживайте WILDFIRE 4 в реальном времени с AllMySat

Download on the App Store